Weather History for Sheridan, WY

Change the Weather History Date:

Monday, November 7, 2011

  Actual Average Record
Temperature  
Mean Temperature 29 °F 37 °F  
Max Temperature 44 °F 51 °F 79 °F (2012)
Min Temperature 14 °F 23 °F 0 °F (1971)
Degree Days  
Heating Degree Days 36 28  
Month to date heating degree days 229 187  
Since 1 July heating degree days 846 1095  
Cooling Degree Days 0 0  
Month to date cooling degree days 0 0  
Year to date cooling degree days 511 419  
Moisture  
Dew Point 16 °F    
Average Humidity 63    
Maximum Humidity 88    
Minimum Humidity 37    
Precipitation  
Precipitation 0.00 in 0.03 in 0.45 in (1950)
Month to date precipitation 0.27 0.18  
Year to date precipitation 17.31 13.07  
Sea Level Pressure  
Sea Level Pressure 30.16 in    
Wind  
Wind Speed 2 mph (NW)    
Max Wind Speed 8 mph    
Max Gust Speed 12 mph    
Visibility 10 miles    
Events      
T = Trace of Precipitation, MM = Missing Value Source: NWS Daily Summary

Daily Weather History Graph

Daily Weather History Graph

Search for Another Location

Airport:

Trip Planner

Search our weather history database for the weather conditions in past years. The results will help you decide how hot, cold, wet, or windy it might be!

Date:

Astronomy

Nov. 07, 2011 Rise Set
Actual Time 6:53 AM MST 4:48 PM MST
Civil Twilight 6:22 AM MST 5:19 PM MST
Nautical Twilight 5:47 AM MST 5:54 PM MST
Astronomical Twilight 5:13 AM MST 6:28 PM MST
Moon 3:05 PM MST (11/7) 3:53 AM MST (11/7)
Length of Visible Light 10h 56m
Length of Day
9h 55m
Waxing Gibbous, 92% of the Moon is Illuminated
Nov 7
Waxing Gibbous
Nov 10
Full
Nov 18
Last Quarter
Nov 24
New
Dec 2
First Quarter

Hourly Weather History & Observations

Time (MST) Temp. Windchill Dew Point Humidity Pressure Visibility Wind Dir Wind Speed Gust Speed Precip Events Conditions
12:53 AM 18.0 °F 9.8 °F 12.9 °F 81% 30.14 in 10.0 mi South 5.8 mph - N/A   Clear
1:53 AM 18.0 °F 12.7 °F 12.0 °F 78% 30.13 in 10.0 mi SSW 3.5 mph - N/A   Clear
2:53 AM 19.9 °F 14.9 °F 12.9 °F 74% 30.13 in 10.0 mi South 3.5 mph - N/A   Clear
3:53 AM 18.0 °F - 12.0 °F 78% 30.15 in 10.0 mi Calm Calm - N/A   Clear
4:53 AM 17.1 °F 8.7 °F 12.0 °F 81% 30.16 in 10.0 mi NNW 5.8 mph - N/A   Clear
5:53 AM 15.1 °F - 10.9 °F 84% 30.19 in 10.0 mi Calm Calm - N/A   Clear
6:53 AM 14.0 °F - 10.0 °F 84% 30.20 in 10.0 mi Calm Calm - N/A   Clear
7:53 AM 19.9 °F - 15.1 °F 81% 30.22 in 10.0 mi Calm Calm - N/A   Clear
8:53 AM 25.0 °F - 19.0 °F 78% 30.21 in 10.0 mi Calm Calm - N/A   Clear
9:53 AM 32.0 °F 28.7 °F 21.9 °F 66% 30.19 in 10.0 mi North 3.5 mph - N/A   Clear
10:53 AM 35.1 °F 32.2 °F 19.0 °F 52% 30.18 in 10.0 mi NNW 3.5 mph - N/A   Clear
11:53 AM 39.9 °F 37.8 °F 21.9 °F 49% 30.15 in 10.0 mi North 3.5 mph - N/A   Clear
12:53 PM 42.1 °F 37.7 °F 21.9 °F 45% 30.13 in 10.0 mi North 6.9 mph - N/A   Clear
1:53 PM 44.1 °F - 21.0 °F 40% 30.12 in 10.0 mi Calm Calm - N/A   Clear
2:53 PM 44.1 °F 40.8 °F 19.0 °F 37% 30.11 in 10.0 mi North 5.8 mph - N/A   Clear
3:53 PM 41.0 °F 37.1 °F 19.9 °F 43% 30.13 in 10.0 mi NW 5.8 mph - N/A   Clear
4:53 PM 28.9 °F 25.2 °F 19.0 °F 67% 30.18 in 10.0 mi NNW 3.5 mph - N/A   Clear
5:53 PM 25.0 °F - 19.0 °F 78% 30.22 in 10.0 mi Calm Calm - N/A   Clear
6:53 PM 24.8 °F - 17.6 °F 74% 30.06 in 10.0 mi Calm Calm - N/A   Clear
7:53 PM 21.0 °F - 16.0 °F 81% 30.22 in 10.0 mi Calm Calm - N/A   Clear
8:53 PM 21.0 °F 14.6 °F 15.1 °F 78% 30.20 in 10.0 mi South 4.6 mph - N/A   Clear
9:53 PM 21.0 °F - 14.0 °F 74% 30.18 in 10.0 mi Calm Calm - N/A   Clear
10:53 PM 19.9 °F - 12.9 °F 74% 30.17 in 10.0 mi Calm Calm - N/A   Clear
11:53 PM 19.0 °F - 12.9 °F 77% 30.16 in 10.0 mi Calm Calm - N/A   Clear